User: anonymous   Login
Location: Unspecified
(0.0000°N, 0.0000°E)
Time: 19:49:42
(UTC+02:00)
Language:

ARIANE 5 R/B - Orbit

View from above orbital plane
View from above orbital plane
View from above satellite
View from above satellite

Ground track
Ground track

The orbit data is extracted from the following two-line orbital elements,

1 27387U 02009B   15186.92012598  .00000082  00000-0  42417-4 0  9997
2 27387 098.3660 142.2167 0033659 102.3078 306.6020 14.35848236699332
Epoch (UTC): 05 July 2015 22:04:58
Eccentricity: 0.0033659
inclination: 98.3660°
perigee height: 748 km
apogee height: 796 km
right ascension of ascending node: 142.2167°
argument of perigee: 102.3078°
revolutions per day: 14.35848236
mean anomaly at epoch: 306.6020°
orbit number at epoch: 69933

The dashed part of the orbit path shows where the satellite is in the earth's shadow,  

DLR